TimeCDT,TemperatureF,Dew PointF,Humidity,Sea Level PressureIn,VisibilityMPH,Wind Direction,Wind SpeedMPH,Gust SpeedMPH,PrecipitationIn,Events,Conditions,WindDirDegrees,DateUTC
12:15 AM,35.6,24.8,65,30.29,10.0,WNW,8.1,-,N/A,,Clear,300,2012-10-06 05:15:00
12:35 AM,37.4,24.8,60,30.28,10.0,NW,8.1,-,N/A,,Clear,320,2012-10-06 05:35:00
12:55 AM,37.4,24.8,60,30.28,10.0,NW,8.1,-,N/A,,Clear,320,2012-10-06 05:55:00
1:15 AM,37.4,24.8,60,30.29,10.0,NW,6.9,-,N/A,,Clear,320,2012-10-06 06:15:00
1:55 AM,37.4,23.0,56,30.29,10.0,NNW,9.2,-,N/A,,Clear,340,2012-10-06 06:55:00
2:15 AM,35.6,23.0,60,30.29,10.0,NNW,5.8,-,N/A,,Clear,330,2012-10-06 07:15:00
2:35 AM,37.4,23.0,56,30.30,10.0,NNW,5.8,-,N/A,,Mostly Cloudy,330,2012-10-06 07:35:00
2:55 AM,37.4,23.0,56,30.30,10.0,NNW,5.8,-,N/A,,Mostly Cloudy,330,2012-10-06 07:55:00
3:15 AM,37.4,23.0,56,30.29,10.0,NNW,5.8,-,N/A,,Scattered Clouds,330,2012-10-06 08:15:00
3:35 AM,37.4,23.0,56,30.28,10.0,NNW,5.8,-,N/A,,Scattered Clouds,330,2012-10-06 08:35:00
3:55 AM,37.4,23.0,56,30.28,10.0,NNW,5.8,-,N/A,,Mostly Cloudy,330,2012-10-06 08:55:00
4:15 AM,35.6,23.0,60,30.27,10.0,NNW,9.2,-,N/A,,Scattered Clouds,340,2012-10-06 09:15:00
4:35 AM,35.6,21.2,56,30.28,10.0,NNW,10.4,-,N/A,,Clear,340,2012-10-06 09:35:00
4:55 AM,35.6,21.2,56,30.30,10.0,Calm,Calm,-,N/A,,Clear,0,2012-10-06 09:55:00
5:15 AM,32.0,21.2,64,30.30,10.0,WNW,3.5,-,N/A,,Clear,290,2012-10-06 10:15:00
5:35 AM,30.2,21.2,69,30.31,10.0,Calm,Calm,-,N/A,,Clear,0,2012-10-06 10:35:00
5:55 AM,30.2,21.2,69,30.31,10.0,Calm,Calm,-,N/A,,Clear,0,2012-10-06 10:55:00
6:15 AM,30.2,21.2,69,30.32,10.0,Calm,Calm,-,N/A,,Clear,0,2012-10-06 11:15:00
6:35 AM,30.2,21.2,69,30.33,10.0,West,6.9,-,N/A,,Clear,280,2012-10-06 11:35:00
6:55 AM,28.4,21.2,74,30.34,10.0,WNW,6.9,-,N/A,,Clear,290,2012-10-06 11:55:00
7:15 AM,28.4,21.2,74,30.34,10.0,West,5.8,-,N/A,,Clear,280,2012-10-06 12:15:00
7:35 AM,28.4,21.2,74,30.34,10.0,WNW,3.5,-,N/A,,Clear,300,2012-10-06 12:35:00
7:55 AM,28.4,21.2,74,30.35,10.0,Calm,Calm,-,N/A,,Clear,0,2012-10-06 12:55:00
8:15 AM,28.4,21.2,74,30.34,10.0,Calm,Calm,-,N/A,,Clear,0,2012-10-06 13:15:00
8:35 AM,28.4,21.2,74,30.35,10.0,Calm,Calm,-,N/A,,Clear,0,2012-10-06 13:35:00
8:55 AM,33.8,23.0,65,30.35,10.0,WNW,4.6,-,N/A,,Clear,300,2012-10-06 13:55:00
9:15 AM,35.6,24.8,65,30.35,10.0,WNW,4.6,-,N/A,,Clear,300,2012-10-06 14:15:00
9:35 AM,39.2,24.8,56,30.36,10.0,NW,6.9,-,N/A,,Clear,320,2012-10-06 14:35:00
9:55 AM,39.2,24.8,56,30.36,10.0,NNW,8.1,-,N/A,,Clear,330,2012-10-06 14:55:00
10:15 AM,42.8,24.8,49,30.36,10.0,NW,10.4,-,N/A,,Clear,320,2012-10-06 15:15:00
10:35 AM,44.6,24.8,46,30.36,10.0,North,9.2,16.1,N/A,,Clear,350,2012-10-06 15:35:00
10:55 AM,44.6,23.0,43,30.36,10.0,North,12.7,-,N/A,,Clear,360,2012-10-06 15:55:00
11:15 AM,44.6,24.8,46,30.35,10.0,North,11.5,16.1,N/A,,Scattered Clouds,350,2012-10-06 16:15:00
11:35 AM,46.4,24.8,43,30.35,10.0,NNW,10.4,16.1,N/A,,Scattered Clouds,340,2012-10-06 16:35:00
11:55 AM,46.4,21.2,37,30.35,10.0,NNW,15.0,18.4,N/A,,Scattered Clouds,340,2012-10-06 16:55:00
12:15 PM,48.2,21.2,34,30.35,10.0,North,15.0,20.7,N/A,,Scattered Clouds,350,2012-10-06 17:15:00
12:35 PM,48.2,21.2,34,30.34,10.0,NNW,10.4,18.4,N/A,,Scattered Clouds,340,2012-10-06 17:35:00
12:55 PM,48.2,21.2,34,30.34,10.0,NNW,10.4,18.4,N/A,,Scattered Clouds,340,2012-10-06 17:55:00
1:15 PM,48.2,21.2,34,30.33,10.0,NW,13.8,18.4,N/A,,Scattered Clouds,320,2012-10-06 18:15:00
1:35 PM,48.2,21.2,34,30.32,10.0,NW,11.5,17.3,N/A,,Scattered Clouds,320,2012-10-06 18:35:00
1:55 PM,50.0,21.2,32,30.32,10.0,NNW,12.7,16.1,N/A,,Scattered Clouds,330,2012-10-06 18:55:00
2:15 PM,48.2,21.2,34,30.31,10.0,NW,13.8,18.4,N/A,,Scattered Clouds,320,2012-10-06 19:15:00
2:35 PM,48.2,21.2,34,30.30,10.0,NW,12.7,16.1,N/A,,Scattered Clouds,310,2012-10-06 19:35:00
2:55 PM,51.8,21.2,30,30.29,10.0,NNW,9.2,-,N/A,,Scattered Clouds,340,2012-10-06 19:55:00
3:15 PM,51.8,21.2,30,30.29,10.0,WNW,4.6,-,N/A,,Mostly Cloudy,290,2012-10-06 20:15:00
3:35 PM,50.0,21.2,32,30.29,10.0,WNW,9.2,17.3,N/A,,Mostly Cloudy,290,2012-10-06 20:35:00
3:55 PM,50.0,21.2,32,30.29,10.0,NNW,10.4,-,N/A,,Mostly Cloudy,340,2012-10-06 20:55:00
4:15 PM,50.0,21.2,32,30.28,10.0,NW,11.5,17.3,N/A,,Scattered Clouds,320,2012-10-06 21:15:00
4:35 PM,50.0,21.2,32,30.28,10.0,NNW,9.2,18.4,N/A,,Scattered Clouds,340,2012-10-06 21:35:00
4:55 PM,50.0,21.2,32,30.28,10.0,NNW,9.2,-,N/A,,Scattered Clouds,340,2012-10-06 21:55:00
5:15 PM,48.2,21.2,34,30.27,10.0,NNW,10.4,-,N/A,,Scattered Clouds,330,2012-10-06 22:15:00
5:35 PM,48.2,21.2,34,30.28,10.0,NNW,9.2,-,N/A,,Clear,330,2012-10-06 22:35:00
6:15 PM,46.4,21.2,37,30.29,10.0,North,9.2,-,N/A,,Overcast,350,2012-10-06 23:15:00
6:35 PM,46.4,21.2,37,30.29,10.0,North,9.2,-,N/A,,Overcast,350,2012-10-06 23:35:00
6:55 PM,46.4,21.2,37,30.29,10.0,North,10.4,-,N/A,,Overcast,350,2012-10-06 23:55:00
7:15 PM,46.4,23.0,40,30.29,10.0,North,4.6,-,N/A,,Overcast,350,2012-10-07 00:15:00
7:35 PM,44.6,23.0,43,30.29,10.0,North,3.5,-,N/A,,Overcast,360,2012-10-07 00:35:00
7:55 PM,44.6,24.8,46,30.30,10.0,Calm,Calm,-,N/A,,Overcast,0,2012-10-07 00:55:00
8:15 PM,44.6,24.8,46,30.30,10.0,Calm,Calm,-,N/A,,Overcast,0,2012-10-07 01:15:00
8:35 PM,44.6,26.6,49,30.31,10.0,Calm,Calm,-,N/A,,Overcast,0,2012-10-07 01:35:00
8:55 PM,42.8,26.6,53,30.31,10.0,Calm,Calm,-,N/A,,Overcast,0,2012-10-07 01:55:00
9:15 PM,42.8,28.4,57,30.31,10.0,Calm,Calm,-,N/A,,Overcast,0,2012-10-07 02:15:00
9:35 PM,42.8,26.6,53,30.31,10.0,Calm,Calm,-,N/A,,Overcast,0,2012-10-07 02:35:00
9:55 PM,39.2,28.4,65,30.31,10.0,Calm,Calm,-,N/A,,Mostly Cloudy,0,2012-10-07 02:55:00
10:19 PM,35.6,26.6,70,30.31,10.0,NW,3.5,-,N/A,,Scattered Clouds,310,2012-10-07 03:19:00
10:44 PM,33.8,24.8,70,30.31,10.0,WNW,3.5,-,N/A,,Clear,300,2012-10-07 03:44:00
10:59 PM,35.6,24.8,65,30.31,10.0,NW,3.5,-,N/A,,Clear,310,2012-10-07 03:59:00
11:15 PM,32.0,24.8,75,30.31,10.0,WNW,4.6,-,N/A,,Clear,300,2012-10-07 04:15:00
11:35 PM,33.8,24.8,70,30.31,10.0,NW,4.6,-,N/A,,Clear,310,2012-10-07 04:35:00
11:55 PM,32.0,24.8,75,30.30,10.0,WNW,3.5,-,N/A,,Clear,300,2012-10-07 04:55:00